Location: Eenumerhoogte
(53.3420°N, 6.7843°E)
Time: 10:36:42
(UTC+00:00)

Cosmos 1602 Rocket - Pass Details

Date: 15 May 2026
Orbit: 597 x 625 km, 82.5° (Epoch: 8 June)

Event Time Altitude Azimuth Distance (km) Brightness Sun altitude
Rises 20:37:55 0° 349° (N) 2,861 8.2 -8.8°
Reaches altitude 10° 20:40:08 10° 350° (N) 1,956 7.2 -9.0°
Maximum altitude 20:44:28 84° 78° (ENE) 615 3.5 -9.4°
Enters shadow 20:48:45 10° 168° (SSE) 1,931 5.5 -9.8°
